Year,Month,Day,Hour,Minute,Value (Times are PST for temperature in C)
2014,08,10,00,00,17.40
2014,08,10,00,01,17.40
2014,08,10,00,02,17.30
2014,08,10,00,03,17.30
2014,08,10,00,04,17.30
2014,08,10,00,05,17.30
2014,08,10,00,06,17.30
2014,08,10,00,07,17.30
2014,08,10,00,08,17.30
2014,08,10,00,09,17.30
2014,08,10,00,10,17.30
2014,08,10,00,11,17.30
2014,08,10,00,12,17.30
2014,08,10,00,13,17.20
2014,08,10,00,14,17.20
2014,08,10,00,15,17.20
2014,08,10,00,16,17.20
2014,08,10,00,17,17.20
2014,08,10,00,18,17.20
2014,08,10,00,19,17.20
2014,08,10,00,20,17.20
2014,08,10,00,21,17.20
2014,08,10,00,22,17.10
2014,08,10,00,23,17.10
2014,08,10,00,24,17.10
2014,08,10,00,25,17.10
2014,08,10,00,26,17.10
2014,08,10,00,27,17.00
2014,08,10,00,28,17.00
2014,08,10,00,29,17.00
2014,08,10,00,30,16.90
2014,08,10,00,31,16.90
2014,08,10,00,32,16.90
2014,08,10,00,33,16.80
2014,08,10,00,34,16.80
2014,08,10,00,35,16.70
2014,08,10,00,36,16.70
2014,08,10,00,37,16.70
2014,08,10,00,38,16.60
2014,08,10,00,39,16.60
2014,08,10,00,40,16.60
2014,08,10,00,41,16.50
2014,08,10,00,42,16.50
2014,08,10,00,43,16.50
2014,08,10,00,44,16.40
2014,08,10,00,45,16.40
2014,08,10,00,46,16.40
2014,08,10,00,47,16.40
2014,08,10,00,48,16.40
2014,08,10,00,49,16.40
2014,08,10,00,50,16.40
2014,08,10,00,51,16.40
2014,08,10,00,52,16.40
2014,08,10,00,53,16.40
2014,08,10,00,54,16.40
2014,08,10,00,55,16.40
2014,08,10,00,56,16.40
2014,08,10,00,57,16.40
2014,08,10,00,58,16.40
2014,08,10,00,59,16.40
2014,08,10,01,00,16.40
2014,08,10,01,01,16.50
2014,08,10,01,02,16.40
2014,08,10,01,03,16.50
2014,08,10,01,04,16.40
2014,08,10,01,05,16.50
2014,08,10,01,06,16.50
2014,08,10,01,07,16.50
2014,08,10,01,08,16.50
2014,08,10,01,09,16.60
2014,08,10,01,10,16.70
2014,08,10,01,11,16.90
2014,08,10,01,12,17.10
2014,08,10,01,13,17.30
2014,08,10,01,14,17.50
2014,08,10,01,15,17.70
2014,08,10,01,16,18.00
2014,08,10,01,17,18.30
2014,08,10,01,18,18.50
2014,08,10,01,19,18.70
2014,08,10,01,20,18.90
2014,08,10,01,21,19.10
2014,08,10,01,22,19.20
2014,08,10,01,23,19.40
2014,08,10,01,24,19.60
2014,08,10,01,25,19.70
2014,08,10,01,26,19.80
2014,08,10,01,27,19.90
2014,08,10,01,28,20.00
2014,08,10,01,29,20.10
2014,08,10,01,30,20.20
2014,08,10,01,31,20.30
2014,08,10,01,32,20.30
2014,08,10,01,33,20.40
2014,08,10,01,34,20.40
2014,08,10,01,35,20.50
2014,08,10,01,36,20.50
2014,08,10,01,37,20.60
2014,08,10,01,38,20.60
2014,08,10,01,39,20.60
2014,08,10,01,40,20.60
2014,08,10,01,41,20.70
2014,08,10,01,42,20.70
2014,08,10,01,43,20.70
2014,08,10,01,44,20.70
2014,08,10,01,45,20.70
2014,08,10,01,46,20.70
2014,08,10,01,47,20.70
2014,08,10,01,48,20.70
2014,08,10,01,49,20.70
2014,08,10,01,50,20.70
2014,08,10,01,51,20.80
2014,08,10,01,52,20.80
2014,08,10,01,53,20.80
2014,08,10,01,54,20.80
2014,08,10,01,55,20.80
2014,08,10,01,56,20.80
2014,08,10,01,57,20.80
2014,08,10,01,58,20.80
2014,08,10,01,59,20.80
2014,08,10,02,00,20.80
2014,08,10,02,01,20.80
2014,08,10,02,02,20.80
2014,08,10,02,03,20.80
2014,08,10,02,04,20.80
2014,08,10,02,05,20.80
2014,08,10,02,06,20.80
2014,08,10,02,07,20.80
2014,08,10,02,08,20.80
2014,08,10,02,09,20.80
2014,08,10,02,10,20.90
2014,08,10,02,11,20.90
2014,08,10,02,12,20.90
2014,08,10,02,13,20.90
2014,08,10,02,14,20.90
2014,08,10,02,15,21.00
2014,08,10,02,16,21.00
2014,08,10,02,17,21.00
2014,08,10,02,18,21.10
2014,08,10,02,19,21.10
2014,08,10,02,20,21.20
2014,08,10,02,21,21.20
2014,08,10,02,22,21.20
2014,08,10,02,23,21.20
2014,08,10,02,24,21.20
2014,08,10,02,25,21.20
2014,08,10,02,26,21.20
2014,08,10,02,27,21.20
2014,08,10,02,28,21.20
2014,08,10,02,29,21.10
2014,08,10,02,30,21.10
2014,08,10,02,31,21.10
2014,08,10,02,32,21.10
2014,08,10,02,33,21.10
2014,08,10,02,34,21.10
2014,08,10,02,35,21.10
2014,08,10,02,36,21.10
2014,08,10,02,37,21.10
2014,08,10,02,38,21.00
2014,08,10,02,39,21.00
2014,08,10,02,40,21.00
2014,08,10,02,41,21.00
2014,08,10,02,42,21.00
2014,08,10,02,43,21.00
2014,08,10,02,44,21.00
2014,08,10,02,45,21.00
2014,08,10,02,46,21.00
2014,08,10,02,47,21.00
2014,08,10,02,48,20.90
2014,08,10,02,49,20.90
2014,08,10,02,50,20.90
2014,08,10,02,51,20.90
2014,08,10,02,52,20.90
2014,08,10,02,53,20.90
2014,08,10,02,54,20.90
2014,08,10,02,55,20.90
2014,08,10,02,56,20.90
2014,08,10,02,57,20.90
2014,08,10,02,58,20.90
2014,08,10,02,59,20.90
2014,08,10,03,00,20.90
2014,08,10,03,01,20.90
2014,08,10,03,02,20.90
2014,08,10,03,03,20.90
2014,08,10,03,04,20.90
2014,08,10,03,05,20.90
2014,08,10,03,06,20.90
2014,08,10,03,07,20.90
2014,08,10,03,08,20.90
2014,08,10,03,09,20.90
2014,08,10,03,10,20.90
2014,08,10,03,11,20.90
2014,08,10,03,12,20.90
2014,08,10,03,13,20.90
2014,08,10,03,14,20.80
2014,08,10,03,15,20.80
2014,08,10,03,16,20.80
2014,08,10,03,17,20.80
2014,08,10,03,18,20.80
2014,08,10,03,19,20.80
2014,08,10,03,20,20.80
2014,08,10,03,21,20.80
2014,08,10,03,22,20.80
2014,08,10,03,23,20.80
2014,08,10,03,24,20.70
2014,08,10,03,25,20.70
2014,08,10,03,26,20.70
2014,08,10,03,27,20.70
2014,08,10,03,28,20.70
2014,08,10,03,29,20.70
2014,08,10,03,30,20.70
2014,08,10,03,31,20.70
2014,08,10,03,32,20.70
2014,08,10,03,33,20.80
2014,08,10,03,34,20.80
2014,08,10,03,35,20.80
2014,08,10,03,36,20.80
2014,08,10,03,37,20.80
2014,08,10,03,38,20.80
2014,08,10,03,39,20.80
2014,08,10,03,40,20.80
2014,08,10,03,41,20.70
2014,08,10,03,42,20.80
2014,08,10,03,43,20.80
2014,08,10,03,44,20.80
2014,08,10,03,45,20.80
2014,08,10,03,46,20.80
2014,08,10,03,47,20.80
2014,08,10,03,48,20.80
2014,08,10,03,49,20.80
2014,08,10,03,50,20.80
2014,08,10,03,51,20.80
2014,08,10,03,52,20.80
2014,08,10,03,53,20.80
2014,08,10,03,54,20.80
2014,08,10,03,55,20.80
2014,08,10,03,56,20.70
2014,08,10,03,57,20.70
2014,08,10,03,58,20.70
2014,08,10,03,59,20.70
2014,08,10,04,00,20.70
2014,08,10,04,01,20.70
2014,08,10,04,02,20.70
2014,08,10,04,03,20.70
2014,08,10,04,04,20.70
2014,08,10,04,05,20.70
2014,08,10,04,06,20.70
2014,08,10,04,07,20.70
2014,08,10,04,08,20.70
2014,08,10,04,09,20.70
2014,08,10,04,10,20.70
2014,08,10,04,11,20.70
2014,08,10,04,12,20.70
2014,08,10,04,13,20.70
2014,08,10,04,14,20.70
2014,08,10,04,15,20.70
2014,08,10,04,16,20.60
2014,08,10,04,17,20.60
2014,08,10,04,18,20.60
2014,08,10,04,19,20.60
2014,08,10,04,20,20.60
2014,08,10,04,21,20.60
2014,08,10,04,22,20.60
2014,08,10,04,23,20.60
2014,08,10,04,24,20.60
2014,08,10,04,25,20.60
2014,08,10,04,26,20.50
2014,08,10,04,27,20.50
2014,08,10,04,28,20.50
2014,08,10,04,29,20.50
2014,08,10,04,30,20.50
2014,08,10,04,31,20.50
2014,08,10,04,32,20.50
2014,08,10,04,33,20.50
2014,08,10,04,34,20.50
2014,08,10,04,35,20.50
2014,08,10,04,36,20.50
2014,08,10,04,37,20.50
2014,08,10,04,38,20.50
2014,08,10,04,39,20.50
2014,08,10,04,40,20.50
2014,08,10,04,41,20.50
2014,08,10,04,42,20.50
2014,08,10,04,43,20.50
2014,08,10,04,44,20.50
2014,08,10,04,45,20.50
2014,08,10,04,46,20.40
2014,08,10,04,47,20.40
2014,08,10,04,48,20.50
2014,08,10,04,49,20.40
2014,08,10,04,50,20.40
2014,08,10,04,51,20.40
2014,08,10,04,52,20.40
2014,08,10,04,53,20.40
2014,08,10,04,54,20.40
2014,08,10,04,55,20.40
2014,08,10,04,56,20.40
2014,08,10,04,57,20.40
2014,08,10,04,58,20.40
2014,08,10,04,59,20.40
2014,08,10,05,00,20.40
2014,08,10,05,01,20.40
2014,08,10,05,02,20.40
2014,08,10,05,03,20.40
2014,08,10,05,04,20.30
2014,08,10,05,05,20.30
2014,08,10,05,06,20.30
2014,08,10,05,07,20.30
2014,08,10,05,08,20.30
2014,08,10,05,09,20.30
2014,08,10,05,10,20.30
2014,08,10,05,11,20.30
2014,08,10,05,12,20.30
2014,08,10,05,13,20.30
2014,08,10,05,14,20.30
2014,08,10,05,15,20.30
2014,08,10,05,16,20.30
2014,08,10,05,17,20.30
2014,08,10,05,18,20.30
2014,08,10,05,19,20.20
2014,08,10,05,20,20.20
2014,08,10,05,21,20.20
2014,08,10,05,22,20.20
2014,08,10,05,23,20.20
2014,08,10,05,24,20.20
2014,08,10,05,25,20.20
2014,08,10,05,26,20.20
2014,08,10,05,27,20.20
2014,08,10,05,28,20.20
2014,08,10,05,29,20.20
2014,08,10,05,30,20.20
2014,08,10,05,31,20.10
2014,08,10,05,32,20.10
2014,08,10,05,33,20.10
2014,08,10,05,34,20.10
2014,08,10,05,35,20.10
2014,08,10,05,36,20.00
2014,08,10,05,37,20.00
2014,08,10,05,38,20.00
2014,08,10,05,39,19.90
2014,08,10,05,40,19.90
2014,08,10,05,41,19.90
2014,08,10,05,42,19.90
2014,08,10,05,43,19.90
2014,08,10,05,44,19.80
2014,08,10,05,45,19.80
2014,08,10,05,46,19.80
2014,08,10,05,47,19.80
2014,08,10,05,48,19.80
2014,08,10,05,49,19.70
2014,08,10,05,50,19.70
2014,08,10,05,51,19.70
2014,08,10,05,52,19.70
2014,08,10,05,53,19.70
2014,08,10,05,54,19.70
2014,08,10,05,55,19.70
2014,08,10,05,56,19.70
2014,08,10,05,57,19.70
2014,08,10,05,58,19.70
2014,08,10,05,59,19.70
2014,08,10,06,00,19.80
2014,08,10,06,01,19.80
2014,08,10,06,02,19.80
2014,08,10,06,03,19.80
2014,08,10,06,04,19.80
2014,08,10,06,05,19.90
2014,08,10,06,06,19.90
2014,08,10,06,07,19.90
2014,08,10,06,08,19.90
2014,08,10,06,09,19.90
2014,08,10,06,10,19.90
2014,08,10,06,11,19.90
2014,08,10,06,12,19.90
2014,08,10,06,13,19.90
2014,08,10,06,14,19.90
2014,08,10,06,15,19.90
2014,08,10,06,16,19.90
2014,08,10,06,17,19.90
2014,08,10,06,18,19.90
2014,08,10,06,19,19.90
2014,08,10,06,20,19.90
2014,08,10,06,21,19.90
2014,08,10,06,22,19.90
2014,08,10,06,23,19.90
2014,08,10,06,24,20.00
2014,08,10,06,25,20.00
2014,08,10,06,26,20.00
2014,08,10,06,27,20.10
2014,08,10,06,28,20.10
2014,08,10,06,29,20.10
2014,08,10,06,30,20.10
2014,08,10,06,31,20.10
2014,08,10,06,32,20.10
2014,08,10,06,33,20.10
2014,08,10,06,34,20.20
2014,08,10,06,35,20.10
2014,08,10,06,36,20.10
2014,08,10,06,37,20.10
2014,08,10,06,38,20.10
2014,08,10,06,39,20.10
2014,08,10,06,40,20.10
2014,08,10,06,41,20.10
2014,08,10,06,42,20.10
2014,08,10,06,43,20.10
2014,08,10,06,44,20.10
2014,08,10,06,45,20.10
2014,08,10,06,46,20.10
2014,08,10,06,47,20.10
2014,08,10,06,48,20.10
2014,08,10,06,49,20.10
2014,08,10,06,50,20.10
2014,08,10,06,51,20.10
2014,08,10,06,52,20.10
2014,08,10,06,53,20.10
2014,08,10,06,54,20.10
2014,08,10,06,55,20.10
2014,08,10,06,56,20.10
2014,08,10,06,57,20.20
2014,08,10,06,58,20.20
2014,08,10,06,59,20.20
2014,08,10,07,00,20.20
2014,08,10,07,01,20.20
2014,08,10,07,02,20.20
2014,08,10,07,03,20.20
2014,08,10,07,04,20.30
2014,08,10,07,05,20.30
2014,08,10,07,06,20.30
2014,08,10,07,07,20.30
2014,08,10,07,08,20.30
2014,08,10,07,09,20.30
2014,08,10,07,10,20.30
2014,08,10,07,11,20.40
2014,08,10,07,12,20.40
2014,08,10,07,13,20.40
2014,08,10,07,14,20.40
2014,08,10,07,15,20.40
2014,08,10,07,16,20.50
2014,08,10,07,17,20.50
2014,08,10,07,18,20.50
2014,08,10,07,19,20.60
2014,08,10,07,20,20.60
2014,08,10,07,21,20.60
2014,08,10,07,22,20.60
2014,08,10,07,23,20.70
2014,08,10,07,24,20.70
2014,08,10,07,25,20.70
2014,08,10,07,26,20.70
2014,08,10,07,27,20.80
2014,08,10,07,28,20.80
2014,08,10,07,29,20.80
2014,08,10,07,30,20.80
2014,08,10,07,31,20.80
2014,08,10,07,32,20.90
2014,08,10,07,33,20.90
2014,08,10,07,34,20.90
2014,08,10,07,35,20.90
2014,08,10,07,36,21.00
2014,08,10,07,37,21.00
2014,08,10,07,38,21.00
2014,08,10,07,39,21.10
2014,08,10,07,40,21.10
2014,08,10,07,41,21.10
2014,08,10,07,42,21.10
2014,08,10,07,43,21.20
2014,08,10,07,44,21.20
2014,08,10,07,45,21.20
2014,08,10,07,46,21.20
2014,08,10,07,47,21.20
2014,08,10,07,48,21.20
2014,08,10,07,49,21.30
2014,08,10,07,50,21.30
2014,08,10,07,51,21.30
2014,08,10,07,52,21.30
2014,08,10,07,53,21.30
2014,08,10,07,54,21.30
2014,08,10,07,55,21.40
2014,08,10,07,56,21.40
2014,08,10,07,57,21.40
2014,08,10,07,58,21.40
2014,08,10,07,59,21.50
2014,08,10,08,00,21.50
2014,08,10,08,01,21.60
2014,08,10,08,02,21.60
2014,08,10,08,03,21.60
2014,08,10,08,04,21.60
2014,08,10,08,05,21.70
2014,08,10,08,06,21.70
2014,08,10,08,07,21.70
2014,08,10,08,08,21.70
2014,08,10,08,09,21.80
2014,08,10,08,10,21.80
2014,08,10,08,11,21.80
2014,08,10,08,12,21.80
2014,08,10,08,13,21.80
2014,08,10,08,14,21.90
2014,08,10,08,15,21.90
2014,08,10,08,16,21.90
2014,08,10,08,17,21.90
2014,08,10,08,18,21.90
2014,08,10,08,19,22.00
2014,08,10,08,20,22.00
2014,08,10,08,21,22.00
2014,08,10,08,22,22.10
2014,08,10,08,23,22.10
2014,08,10,08,24,22.10
2014,08,10,08,25,22.10
2014,08,10,08,26,22.20
2014,08,10,08,27,22.20
2014,08,10,08,28,22.20
2014,08,10,08,29,22.30
2014,08,10,08,30,22.30
2014,08,10,08,31,22.30
2014,08,10,08,32,22.40
2014,08,10,08,33,22.40
2014,08,10,08,34,22.40
2014,08,10,08,35,22.50
2014,08,10,08,36,22.50
2014,08,10,08,37,22.60
2014,08,10,08,38,22.60
2014,08,10,08,39,22.70
2014,08,10,08,40,22.70
2014,08,10,08,41,22.80
2014,08,10,08,42,22.80
2014,08,10,08,43,22.80
2014,08,10,08,44,22.90
2014,08,10,08,45,23.00
2014,08,10,08,46,23.00
2014,08,10,08,47,23.10
2014,08,10,08,48,23.10
2014,08,10,08,49,23.20
2014,08,10,08,50,23.20
2014,08,10,08,51,23.20
2014,08,10,08,52,23.30
2014,08,10,08,53,23.30
2014,08,10,08,54,23.30
2014,08,10,08,55,23.40
2014,08,10,08,56,23.40
2014,08,10,08,57,23.40
2014,08,10,08,58,23.50
2014,08,10,08,59,23.50
2014,08,10,09,00,23.60
2014,08,10,09,01,23.60
2014,08,10,09,02,23.60
2014,08,10,09,03,23.70
2014,08,10,09,04,23.70
2014,08,10,09,05,23.70
2014,08,10,09,06,23.70
2014,08,10,09,07,23.80
2014,08,10,09,08,23.80
2014,08,10,09,09,23.80
2014,08,10,09,10,23.80
2014,08,10,09,11,23.80
2014,08,10,09,12,23.80
2014,08,10,09,13,23.90
2014,08,10,09,14,23.90
2014,08,10,09,15,23.90
2014,08,10,09,16,23.90
2014,08,10,09,17,24.00
2014,08,10,09,18,24.00
2014,08,10,09,19,24.10
2014,08,10,09,20,24.10
2014,08,10,09,21,24.10
2014,08,10,09,22,24.20
2014,08,10,09,23,24.20
2014,08,10,09,24,24.20
2014,08,10,09,25,24.20
2014,08,10,09,26,24.20
2014,08,10,09,27,24.30
2014,08,10,09,28,24.30
2014,08,10,09,29,24.30
2014,08,10,09,30,24.30
2014,08,10,09,31,24.40
2014,08,10,09,32,24.40
2014,08,10,09,33,24.40
2014,08,10,09,34,24.40
2014,08,10,09,35,24.50
2014,08,10,09,36,24.50
2014,08,10,09,37,24.50
2014,08,10,09,38,24.50
2014,08,10,09,39,24.60
2014,08,10,09,40,24.60
2014,08,10,09,41,24.70
2014,08,10,09,42,24.70
2014,08,10,09,43,24.70
2014,08,10,09,44,24.70
2014,08,10,09,45,24.80
2014,08,10,09,46,24.80
2014,08,10,09,47,24.80
2014,08,10,09,48,24.80
2014,08,10,09,49,24.80
2014,08,10,09,50,24.80
2014,08,10,09,51,24.80
2014,08,10,09,52,24.80
2014,08,10,09,53,24.80
2014,08,10,09,54,24.80
2014,08,10,09,55,24.80
2014,08,10,09,56,24.80
2014,08,10,09,57,24.80
2014,08,10,09,58,24.80
2014,08,10,09,59,24.90
2014,08,10,10,00,24.90
2014,08,10,10,01,24.90
2014,08,10,10,02,24.90
2014,08,10,10,03,24.90
2014,08,10,10,04,24.90
2014,08,10,10,05,24.90
2014,08,10,10,06,24.90
2014,08,10,10,07,24.90
2014,08,10,10,08,25.00
2014,08,10,10,09,25.10
2014,08,10,10,10,25.20
2014,08,10,10,11,25.20
2014,08,10,10,12,25.20
2014,08,10,10,13,25.30
2014,08,10,10,14,25.30
2014,08,10,10,15,25.40
2014,08,10,10,16,25.50
2014,08,10,10,17,25.50
2014,08,10,10,18,25.50
2014,08,10,10,19,25.50
2014,08,10,10,20,25.50
2014,08,10,10,21,25.60
2014,08,10,10,22,25.60
2014,08,10,10,23,25.60
2014,08,10,10,24,25.60
2014,08,10,10,25,25.60
2014,08,10,10,26,25.60
2014,08,10,10,27,25.60
2014,08,10,10,28,25.60
2014,08,10,10,29,25.70
2014,08,10,10,30,25.60
2014,08,10,10,31,25.70
2014,08,10,10,32,25.70
2014,08,10,10,33,25.70
2014,08,10,10,34,25.80
2014,08,10,10,35,25.80
2014,08,10,10,36,25.70
2014,08,10,10,37,25.70
2014,08,10,10,38,25.70
2014,08,10,10,39,25.70
2014,08,10,10,40,25.80
2014,08,10,10,41,25.80
2014,08,10,10,42,25.80
2014,08,10,10,43,25.80
2014,08,10,10,44,25.80
2014,08,10,10,45,25.80
2014,08,10,10,46,25.80
2014,08,10,10,47,25.80
2014,08,10,10,48,25.80
2014,08,10,10,49,25.90
2014,08,10,10,50,25.90
2014,08,10,10,51,25.90
2014,08,10,10,52,25.90
2014,08,10,10,53,25.80
2014,08,10,10,54,25.80
2014,08,10,10,55,25.80
2014,08,10,10,56,25.80
2014,08,10,10,57,25.90
2014,08,10,10,58,25.90
2014,08,10,10,59,25.90
2014,08,10,11,00,25.90
2014,08,10,11,01,26.00
2014,08,10,11,02,26.10
2014,08,10,11,03,26.10
2014,08,10,11,04,26.00
2014,08,10,11,05,26.00
2014,08,10,11,06,26.00
2014,08,10,11,07,26.00
2014,08,10,11,08,26.00
2014,08,10,11,09,26.10
2014,08,10,11,10,26.20
2014,08,10,11,11,26.30
2014,08,10,11,12,26.30
2014,08,10,11,13,26.40
2014,08,10,11,14,26.40
2014,08,10,11,15,26.50
2014,08,10,11,16,26.50
2014,08,10,11,17,26.60
2014,08,10,11,18,26.60
2014,08,10,11,19,26.60
2014,08,10,11,20,26.60
2014,08,10,11,21,26.60
2014,08,10,11,22,26.70
2014,08,10,11,23,26.80
2014,08,10,11,24,26.80
2014,08,10,11,25,26.80
2014,08,10,11,26,26.80
2014,08,10,11,27,26.80
2014,08,10,11,28,26.80
2014,08,10,11,29,26.90
2014,08,10,11,30,26.90
2014,08,10,11,31,26.90
2014,08,10,11,32,26.80
2014,08,10,11,33,26.80
2014,08,10,11,34,26.80
2014,08,10,11,35,26.80
2014,08,10,11,36,26.80
2014,08,10,11,37,26.90
2014,08,10,11,38,26.90
2014,08,10,11,39,26.90
2014,08,10,11,40,26.90
2014,08,10,11,41,26.90
2014,08,10,11,42,26.90
2014,08,10,11,43,26.90
2014,08,10,11,44,26.90
2014,08,10,11,45,26.90
2014,08,10,11,46,26.90
2014,08,10,11,47,27.00
2014,08,10,11,48,27.10
2014,08,10,11,49,27.20
2014,08,10,11,50,27.30
2014,08,10,11,51,27.40
2014,08,10,11,52,27.50
2014,08,10,11,53,27.50
2014,08,10,11,54,27.40
2014,08,10,11,55,27.40
2014,08,10,11,56,27.30
2014,08,10,11,57,27.30
2014,08,10,11,58,27.30
2014,08,10,11,59,27.30
2014,08,10,12,00,27.40
2014,08,10,12,01,27.40
2014,08,10,12,02,27.40
2014,08,10,12,03,27.50
2014,08,10,12,04,27.60
2014,08,10,12,05,27.70
2014,08,10,12,06,27.70
2014,08,10,12,07,27.70
2014,08,10,12,08,27.70
2014,08,10,12,09,27.70
2014,08,10,12,10,27.70
2014,08,10,12,11,27.80
2014,08,10,12,12,27.80
2014,08,10,12,13,27.90
2014,08,10,12,14,27.90
2014,08,10,12,15,28.00
2014,08,10,12,16,28.00
2014,08,10,12,17,28.10
2014,08,10,12,18,28.10
2014,08,10,12,19,28.10
2014,08,10,12,20,28.10
2014,08,10,12,21,28.10
2014,08,10,12,22,28.10
2014,08,10,12,23,28.10
2014,08,10,12,24,28.10
2014,08,10,12,25,28.10
2014,08,10,12,26,28.20
2014,08,10,12,27,28.20
2014,08,10,12,28,28.30
2014,08,10,12,29,28.30
2014,08,10,12,30,28.30
2014,08,10,12,31,28.30
2014,08,10,12,32,28.30
2014,08,10,12,33,28.40
2014,08,10,12,34,28.50
2014,08,10,12,35,28.60
2014,08,10,12,36,28.70
2014,08,10,12,37,28.80
2014,08,10,12,38,28.90
2014,08,10,12,39,28.90
2014,08,10,12,40,28.90
2014,08,10,12,41,28.90
2014,08,10,12,42,28.90
2014,08,10,12,43,28.80
2014,08,10,12,44,28.80
2014,08,10,12,45,28.80
2014,08,10,12,46,28.90
2014,08,10,12,47,29.00
2014,08,10,12,48,29.10
2014,08,10,12,49,29.20
2014,08,10,12,50,29.30
2014,08,10,12,51,29.30
2014,08,10,12,52,29.30
2014,08,10,12,53,29.30
2014,08,10,12,54,29.30
2014,08,10,12,55,29.40
2014,08,10,12,56,29.40
2014,08,10,12,57,29.40
2014,08,10,12,58,29.40
2014,08,10,12,59,29.40
2014,08,10,13,00,29.40
2014,08,10,13,01,29.40
2014,08,10,13,02,29.40
2014,08,10,13,03,29.40
2014,08,10,13,04,29.40
2014,08,10,13,05,29.30
2014,08,10,13,06,29.30
2014,08,10,13,07,29.30
2014,08,10,13,08,29.30
2014,08,10,13,09,29.30
2014,08,10,13,10,29.30
2014,08,10,13,11,29.30
2014,08,10,13,12,29.40
2014,08,10,13,13,29.50
2014,08,10,13,14,29.50
2014,08,10,13,15,29.60
2014,08,10,13,16,29.70
2014,08,10,13,17,29.60
2014,08,10,13,18,29.60
2014,08,10,13,19,29.60
2014,08,10,13,20,29.60
2014,08,10,13,21,29.50
2014,08,10,13,22,29.40
2014,08,10,13,23,29.40
2014,08,10,13,24,29.40
2014,08,10,13,25,29.40
2014,08,10,13,26,29.40
2014,08,10,13,27,29.50
2014,08,10,13,28,29.60
2014,08,10,13,29,29.70
2014,08,10,13,30,29.70
2014,08,10,13,31,29.70
2014,08,10,13,32,29.70
2014,08,10,13,33,29.70
2014,08,10,13,34,29.80
2014,08,10,13,35,29.80
2014,08,10,13,36,29.90
2014,08,10,13,37,29.90
2014,08,10,13,38,30.00
2014,08,10,13,39,30.00
2014,08,10,13,40,30.00
2014,08,10,13,41,30.10
2014,08,10,13,42,30.20
2014,08,10,13,43,30.20
2014,08,10,13,44,30.20
2014,08,10,13,45,30.30
2014,08,10,13,46,30.30
2014,08,10,13,47,30.30
2014,08,10,13,48,30.20
2014,08,10,13,49,30.20
2014,08,10,13,50,30.10
2014,08,10,13,51,30.10
2014,08,10,13,52,30.00
2014,08,10,13,53,30.00
2014,08,10,13,54,30.00
2014,08,10,13,55,30.00
2014,08,10,13,56,29.90
2014,08,10,13,57,29.90
2014,08,10,13,58,29.90
2014,08,10,13,59,30.00
2014,08,10,14,00,30.00
2014,08,10,14,01,30.10
2014,08,10,14,02,30.20
2014,08,10,14,03,30.30
2014,08,10,14,04,30.30
2014,08,10,14,05,30.30
2014,08,10,14,06,30.40
2014,08,10,14,07,30.40
2014,08,10,14,08,30.40
2014,08,10,14,09,30.40
2014,08,10,14,10,30.50
2014,08,10,14,11,30.50
2014,08,10,14,12,30.50
2014,08,10,14,13,30.60
2014,08,10,14,14,30.60
2014,08,10,14,15,30.70
2014,08,10,14,16,30.80
2014,08,10,14,17,30.80
2014,08,10,14,18,30.80
2014,08,10,14,19,30.90
2014,08,10,14,20,31.00
2014,08,10,14,21,31.00
2014,08,10,14,22,31.10
2014,08,10,14,23,31.00
2014,08,10,14,24,30.90
2014,08,10,14,25,30.90
2014,08,10,14,26,30.90
2014,08,10,14,27,30.90
2014,08,10,14,28,30.90
2014,08,10,14,29,30.90
2014,08,10,14,30,30.90
2014,08,10,14,31,31.00
2014,08,10,14,32,31.00
2014,08,10,14,33,31.00
2014,08,10,14,34,31.00
2014,08,10,14,35,31.00
2014,08,10,14,36,31.00
2014,08,10,14,37,31.00
2014,08,10,14,38,31.00
2014,08,10,14,39,30.90
2014,08,10,14,40,30.90
2014,08,10,14,41,30.90
2014,08,10,14,42,30.80
2014,08,10,14,43,30.80
2014,08,10,14,44,30.70
2014,08,10,14,45,30.70
2014,08,10,14,46,30.70
2014,08,10,14,47,30.70
2014,08,10,14,48,30.80
2014,08,10,14,49,30.80
2014,08,10,14,50,30.90
2014,08,10,14,51,30.90
2014,08,10,14,52,30.90
2014,08,10,14,53,31.00
2014,08,10,14,54,31.00
2014,08,10,14,55,30.90
2014,08,10,14,56,30.90
2014,08,10,14,57,30.90
2014,08,10,14,58,30.90
2014,08,10,14,59,30.90
2014,08,10,15,00,30.90
2014,08,10,15,01,30.90
2014,08,10,15,02,30.90
2014,08,10,15,03,30.90
2014,08,10,15,04,30.90
2014,08,10,15,05,31.00
2014,08,10,15,06,31.10
2014,08,10,15,07,31.10
2014,08,10,15,08,31.10
2014,08,10,15,09,31.10
2014,08,10,15,10,31.00
2014,08,10,15,11,30.90
2014,08,10,15,12,30.90
2014,08,10,15,13,30.90
2014,08,10,15,14,30.80
2014,08,10,15,15,30.80
2014,08,10,15,16,30.80
2014,08,10,15,17,30.80
2014,08,10,15,18,30.80
2014,08,10,15,19,30.80
2014,08,10,15,20,30.80
2014,08,10,15,21,30.80
2014,08,10,15,22,30.80
2014,08,10,15,23,30.80
2014,08,10,15,24,30.90
2014,08,10,15,25,30.90
2014,08,10,15,26,30.90
2014,08,10,15,27,30.90
2014,08,10,15,28,30.80
2014,08,10,15,29,30.70
2014,08,10,15,30,30.70
2014,08,10,15,31,30.60
2014,08,10,15,32,30.60
2014,08,10,15,33,30.60
2014,08,10,15,34,30.70
2014,08,10,15,35,30.80
2014,08,10,15,36,30.80
2014,08,10,15,37,30.80
2014,08,10,15,38,30.80
2014,08,10,15,39,30.80
2014,08,10,15,40,30.80
2014,08,10,15,41,30.90
2014,08,10,15,42,31.00
2014,08,10,15,43,31.10
2014,08,10,15,44,31.10
2014,08,10,15,45,31.00
2014,08,10,15,46,31.00
2014,08,10,15,47,31.00
2014,08,10,15,48,30.90
2014,08,10,15,49,30.90
2014,08,10,15,50,30.90
2014,08,10,15,51,30.90
2014,08,10,15,52,30.90
2014,08,10,15,53,30.90
2014,08,10,15,54,30.90
2014,08,10,15,55,30.90
2014,08,10,15,56,30.90
2014,08,10,15,57,30.90
2014,08,10,15,58,31.00
2014,08,10,15,59,31.00
2014,08,10,16,00,31.10
2014,08,10,16,01,31.00
2014,08,10,16,02,30.90
2014,08,10,16,03,30.90
2014,08,10,16,04,30.90
2014,08,10,16,05,31.00
2014,08,10,16,06,31.00
2014,08,10,16,07,31.00
2014,08,10,16,08,30.90
2014,08,10,16,09,30.80
2014,08,10,16,10,30.90
2014,08,10,16,11,30.90
2014,08,10,16,12,31.00
2014,08,10,16,13,31.00
2014,08,10,16,14,31.00
2014,08,10,16,15,31.10
2014,08,10,16,16,31.10
2014,08,10,16,17,31.10
2014,08,10,16,18,31.10
2014,08,10,16,19,31.20
2014,08,10,16,20,31.10
2014,08,10,16,21,31.10
2014,08,10,16,22,31.00
2014,08,10,16,23,31.00
2014,08,10,16,24,30.90
2014,08,10,16,25,31.00
2014,08,10,16,26,31.00
2014,08,10,16,27,31.00
2014,08,10,16,28,31.00
2014,08,10,16,29,31.10
2014,08,10,16,30,31.10
2014,08,10,16,31,31.20
2014,08,10,16,32,31.20
2014,08,10,16,33,31.20
2014,08,10,16,34,31.10
2014,08,10,16,35,31.10
2014,08,10,16,36,31.10
2014,08,10,16,37,31.10
2014,08,10,16,38,31.10
2014,08,10,16,39,31.20
2014,08,10,16,40,31.30
2014,08,10,16,41,31.40
2014,08,10,16,42,31.40
2014,08,10,16,43,31.50
2014,08,10,16,44,31.50
2014,08,10,16,45,31.50
2014,08,10,16,46,31.40
2014,08,10,16,47,31.40
2014,08,10,16,48,31.30
2014,08,10,16,49,31.20
2014,08,10,16,50,31.20
2014,08,10,16,51,31.20
2014,08,10,16,52,31.20
2014,08,10,16,53,31.20
2014,08,10,16,54,31.20
2014,08,10,16,55,31.20
2014,08,10,16,56,31.10
2014,08,10,16,57,31.10
2014,08,10,16,58,31.20
2014,08,10,16,59,31.20
2014,08,10,17,00,31.20
2014,08,10,17,01,31.30
2014,08,10,17,02,31.30
2014,08,10,17,03,31.30
2014,08,10,17,04,31.30
2014,08,10,17,05,31.30
2014,08,10,17,06,31.30
2014,08,10,17,07,31.30
2014,08,10,17,08,31.30
2014,08,10,17,09,31.40
2014,08,10,17,10,31.40
2014,08,10,17,11,31.40
2014,08,10,17,12,31.50
2014,08,10,17,13,31.60
2014,08,10,17,14,31.60
2014,08,10,17,15,31.60
2014,08,10,17,16,31.60
2014,08,10,17,17,31.50
2014,08,10,17,18,31.50
2014,08,10,17,19,31.40